Flag for U.S.A. Weather past 2 weeks in Modesto, California, U.S.A.

Now
89 °F

Sunny.


Feels Like: 86 °F
Forecast: 63 / 88 °F
Wind: 9 mph from Northwest

Location: Modesto City-County-Sham Field

Current Time: Sep 16, 2014 at 5:06:26 PM

Latest Report: Sep 16, 2014 at 3:53 PM


Visibility: 10 mi

Pressure: 29.77 "Hg

Humidity: 25%

Dew point: 49 °F

Location of ModestoLocation

Historic Weather in Modesto — Graph

°F

Modesto temperature yesterday

Maximum temperature yesterday: 94 °F (at 2:53 PM)
Minimum temperature yesterday: 68 °F (at 5:53 AM)
Average temperature yesterday: 79 °F

Past Weeks' High & Low Weather Summary

 TemperatureHumidityPressure
High100 °F (Sep 12, 3:53 PM)90% (Sep 3, 6:53 AM)29.97 "Hg (Sep 3, 6:53 AM)
Low54 °F (Sep 9, 5:53 AM)12% (Sep 11, 4:53 PM)29.62 "Hg (Sep 3, 6:53 PM)
Average77 °F45%29.79 "Hg
* Reported Sep 1 2:53 PM — Sep 16 2:53 PM, Modesto, Weather by CustomWeather, © 2014

Note: Actual official high and low records may vary slightly from our data, if they occured in-between our weather recording intervals... More about our weather records

Advertising

Modesto weather history for previous 24 hours

 ConditionsComfort  
Time TempWeatherWind HumidityBarometerVisibility
2:53 PM
Sep 16
87 °FSunny.7 mph27%29.79 "Hg10 mi
1:53 PM86 °FSunny.8 mph28%29.82 "Hg10 mi
12:53 PM83 °FSunny.5 mph32%29.85 "Hg10 mi
11:53 AM79 °FSunny.7 mph39%29.87 "Hg10 mi
10:53 AM76 °FSunny.8 mph42%29.89 "Hg10 mi
9:53 AM72 °FSunny.6 mph48%29.90 "Hg10 mi
8:53 AM68 °FSunny.10 mph57%29.90 "Hg10 mi
7:53 AM63 °FSunny.8 mph70%29.89 "Hg10 mi
6:53 AM61 °FClear.7 mph72%29.89 "Hg10 mi
5:53 AM61 °FClear.8 mph70%29.88 "Hg10 mi
4:53 AM62 °FClear.7 mph67%29.88 "Hg10 mi
3:53 AM63 °FClear.8 mph65%29.88 "Hg10 mi
2:53 AM64 °FClear.9 mph65%29.89 "Hg10 mi
1:53 AM65 °FClear.9 mph66%29.89 "Hg10 mi
12:53 AM67 °FClear.12 mph59%29.89 "Hg10 mi
11:53 PM
Sep 15
68 °FClear.8 mph59%29.88 "Hg10 mi
10:53 PM71 °FClear.9 mph51%29.87 "Hg10 mi
9:53 PM74 °FClear.10 mph43%29.85 "Hg10 mi
8:53 PM77 °FClear.13 mph40%29.83 "Hg10 mi
7:53 PM81 °FSunny.14 mph37%29.81 "Hg10 mi
6:53 PM86 °FSunny.14 mph32%29.79 "Hg10 mi
5:53 PM90 °FSunny.15 mph28%29.78 "Hg10 mi
Weather by CustomWeather, © 2014

See weather overviewHow to use our weather pages